Location: Archemont
(49.1579°N, 1.7598°E)
Time: 13:30:56
(UTC+00:00)

A-11 Canister half - Pass Details

Date: 26 April 2024
Orbit: 1525 x 1683 km, 47.3° (Epoch: 20 May)

Event Time Altitude Azimuth Distance (km) Brightness Sun altitude
Exits shadow 02:26:17 10° 176° (S) 3,867 10.7 -18.4°
Reaches altitude 10° 02:26:24 10° 175° (S) 3,845 10.7 -18.4°
Maximum altitude 02:33:22 22° 129° (SE) 3,021 10.5 -17.7°
Drops below altitude 10° 02:40:28 10° 84° (E) 3,931 11.8 -16.9°
Sets 02:44:33 0° 71° (ENE) 4,935 12.8 -16.4°
